Regional Weather Roundup
Issued by NWS Sioux Falls, SD

Home | Current Version | Previous Version | Graphics & Text | Print | Product List | Glossary On
Versions: 1 2 3 4 5 6 7 8 9 10 11 12 13 14 15 16 17 18 19 20 21 22 23 24 25 26 27 28 29 30 31 32 33 34 35 36 37 38 39 40 41 42 43 44 45 46 47 48 49 50
000
ASUS43 KFSD 221710
RWRFSD

WEATHER ROUNDUP FOR SE SOUTH DAKOTA/SW MINNESOTA/NW IOWA
NATIONAL WEATHER SERVICE SIOUX FALLS SD
1200 PM CDT SUN APR 22 2018

NOTE: "FAIR" INDICATES FEW OR NO CLOUDS BELOW 12,000 FEET WITH NO
SIGNIFICANT WEATHER AND OR OBSTRUCTIONS TO VISIBILITY.


SDZ038>040-050-052>070-221800-
SOUTHEAST SOUTH DAKOTA

CITY           SKY/WX    TMP DP  RH WIND       PRES   REMARKS
BROOKINGS      SUNNY     54  36  50 SE7       30.29F
CHAMBERLAIN    SUNNY     56  38  52 S8        30.26F
HURON          SUNNY     55  39  54 VRB5      30.27S
MADISON        FAIR      52  37  58 S7        30.29F
MITCHELL       SUNNY     54  38  54 SE6       30.28F
SIOUX FALLS    MOSUNNY   57  33  40 E9        30.29S
WINNER         FAIR      53  35  50 S8G18     30.25F
YANKTON        SUNNY     56  35  45 E7        30.28F
$$

MNZ071-072-080-081-089-090-097-098-221800-
SOUTHWEST MINNESOTA

CITY           SKY/WX    TMP DP  RH WIND       PRES   REMARKS
FAIRMONT       CLOUDY    44  35  70 NE7       30.34S
JACKSON        SUNNY     43  34  70 E6        30.33S
LUVERNE        SUNNY     54  34  47 E8        30.31S
MARSHALL       SUNNY     51  39  63 SE6       30.32F
MONTEVIDEO     SUNNY     55  39  54 SW13      30.31F
PIPESTONE      SUNNY    N/A N/A N/A SE6       30.30S
REDWOOD FALLS  SUNNY     53  41  63 SE10      30.33F
TRACY          SUNNY     50  39  67 S8        30.33S
WINDOM         SUNNY     48  30  49 NE6       30.33S
WORTHINGTON    SUNNY     50  37  61 E8        30.32S
$$

IAZ001>003-012>014-020>022-031-032-NEZ013-014-SDZ071-221800-
NORTHWEST IOWA

CITY           SKY/WX    TMP DP  RH WIND       PRES   REMARKS
CHEROKEE       SUNNY     56  39  52 E8        30.28S
DENISON        SUNNY     61  30  31 E15       30.25F
ESTHERVILLE    MOSUNNY   42  37  82 NE7       30.31F
LE MARS        CLOUDY    59  34  38 E10       30.28S
ORANGE CITY    SUNNY     57  36  44 SE7       30.29S
SHELDON        SUNNY     55  34  44 SE9       30.28S
SIOUX CITY     MOSUNNY   61  32  33 E8G17     30.25F
SPENCER        MOSUNNY   50  35  56 E10       30.31R
STORM LAKE     SUNNY     55  36  47 E13       30.27F
$$

ABBREVIATIONS USED IN REMARKS
   TC - TEMPERATURE IN CELSIUS
  WCI - WIND CHILL INDEX
   HX - HEAT INDEX
  VSB - VISIBILITY




USA.gov is the U.S. government's official web portal to all federal, state and local government web resources and services.